Tracking 29892 objects as of 21-Nov-2024
HD Live streaming from Space Station
objects crossing your sky now

STARLINK-2369

Track STARLINK-2369 now!
10-day predictions
STARLINK-2369 is classified as:


NORAD ID: 47909
Int'l Code: 2021-021BB
Perigee: 483.2 km
Apogee: 484.7 km
Inclination: 53.1 °
Period: 94.1 minutes
Semi major axis: 6854 km
RCS: Unknown
Launch date: March 14, 2021
Source: United States (US)
Launch site: AIR FORCE EASTERN TEST RANGE (AFETR)
Your satellite tracking list
Your tracking list is empty




NASA's NSSDC Master Catalog

Two Line Element Set (TLE):
1 47909U 21021BB  24325.91668981  .00387042  00000-0  12622-1 0  9997
2 47909  53.0553 236.4184 0001078  80.8605 138.7383 15.29654764  5785
Source of the keplerian elements: AFSPC